Port Hope, MI

4:28 AM EST on February 07, 2016 (GMT -0500)
Port Hope

Weather History for KP58 - March, 2013

Change the Weather History Date:

Friday, March 8, 2013

  Actual Average Record
Temperature  
Mean Temperature 32 °F -  
Max Temperature 35 °F 32 °F 62 °F (2012)
Min Temperature 28 °F 20 °F 8 °F (2003)
Degree Days  
Heating Degree Days 34    
Moisture  
Dew Point 27 °F    
Average Humidity 85    
Maximum Humidity 92    
Minimum Humidity 78    
Precipitation  
Precipitation 0.00 in - - ()
Sea Level Pressure  
Sea Level Pressure 30.46 in    
Wind  
Wind Speed 3 mph (WNW)    
Max Wind Speed 6 mph    
Max Gust Speed -    
Averages and records for this station are not official NWS values.
T = Trace of Precipitation, MM = Missing Value Source: NWS Daily Summary

Daily Weather History Graph

Daily Weather History Graph

Search for Another Location

Airport or City:

Trip Planner

Search our weather history database for the weather conditions in past years. The results will help you decide how hot, cold, wet, or windy it might be!

Date:

Astronomy

Mar. 08, 2013 Rise Set
Actual Time 6:55 AM EST 6:28 PM EST
Civil Twilight 6:26 AM EST 6:57 PM EST
Nautical Twilight 5:53 AM EST 7:31 PM EST
Astronomical Twilight 5:19 AM EST 8:04 PM EST
Moon 4:44 AM EST (3/8) 3:17 PM EST (3/8)
Length of Visible Light 12h 30m
Length of Day
11h 33m
Waning Crescent, 12% of the Moon is Illuminated
Mar 8
Waning Crescent
Mar 11
New
Mar 19
First Quarter
Mar 27
Full
Apr 3
Last Quarter

Hourly Weather History & Observations

Time (EST) Temp. Windchill Dew Point Humidity Pressure Visibility Wind Dir Wind Speed Gust Speed Precip Events Conditions
12:51 AM 28.0 °F 22.8 °F 23.0 °F 81% 30.41 in - WNW 4.6 mph - N/A   Unknown
1:51 AM 28.0 °F 21.7 °F 21.9 °F 78% 30.43 in - WNW 5.8 mph - N/A   Unknown
2:51 AM 28.0 °F 21.7 °F 21.9 °F 78% 30.43 in - WNW 5.8 mph - N/A   Unknown
3:51 AM 28.9 °F 22.8 °F 23.0 °F 78% 30.43 in - WNW 5.8 mph - N/A   Unknown
4:51 AM 28.0 °F 21.7 °F 23.0 °F 81% 30.45 in - NW 5.8 mph - N/A   Unknown
5:51 AM 28.0 °F 22.8 °F 24.1 °F 85% 30.46 in - WNW 4.6 mph - N/A   Unknown
6:51 AM 30.0 °F 25.2 °F 25.0 °F 82% 30.48 in - WNW 4.6 mph - N/A   Unknown
7:51 AM 30.0 °F 25.2 °F 25.0 °F 82% 30.48 in - WNW 4.6 mph - N/A   Unknown
8:51 AM 32.0 °F - 28.0 °F 85% 30.51 in - Calm Calm - N/A   Unknown
9:51 AM 32.0 °F 28.7 °F 28.9 °F 88% 30.50 in - WNW 3.5 mph - N/A   Unknown
10:51 AM 35.1 °F - 30.9 °F 85% 30.51 in - Calm Calm - N/A   Unknown
11:51 AM 34.0 °F 28.8 °F 28.9 °F 82% 30.50 in - NW 5.8 mph - N/A   Unknown
12:51 PM 34.0 °F 29.8 °F 28.9 °F 82% 30.50 in - NW 4.6 mph - N/A   Unknown
1:51 PM 35.1 °F - 30.9 °F 85% 30.47 in - Calm Calm - N/A   Unknown
2:51 PM 34.0 °F - 30.0 °F 85% 30.47 in - Calm Calm - N/A   Unknown
3:51 PM 34.0 °F - 30.0 °F 85% 30.47 in - Calm Calm - N/A   Unknown
4:51 PM 34.0 °F - 30.0 °F 85% 30.46 in - Calm Calm - N/A   Unknown
5:51 PM 33.1 °F - 30.0 °F 89% 30.46 in - Calm Calm - N/A   Unknown
6:51 PM 30.9 °F - 28.0 °F 89% 30.46 in - Calm Calm - N/A   Unknown
7:51 PM 28.9 °F - 27.0 °F 92% 30.45 in - Calm Calm - N/A   Unknown
8:51 PM 28.9 °F - 27.0 °F 92% 30.44 in - Calm Calm - N/A   Unknown
9:51 PM 30.0 °F - 27.0 °F 88% 30.45 in - Calm Calm - N/A   Unknown
10:51 PM 28.9 °F - 26.1 °F 89% 30.45 in - Calm Calm - N/A   Unknown
11:51 PM 28.9 °F 23.9 °F 26.1 °F 89% 30.44 in - Variable 4.6 mph - N/A   Unknown